Погода в Джизаке

Погода в Джизаке : погода сейчас, прогноз погоды и архив. Всё, что Вы хотите узнать о погоде в Джизаке!

Хотите узнать прогноз погоды в Джизаке? Тогда Вам сюда: Погода в Джизаке

Поиск расширенной информации на нашем сайте:

Другие новости

Новости СМИ2

Главная страница сайта

Новости сайта

03.07.2017

Напоминаем, что на нашем специализированном сайте Метеоцентр.Азия вы можете получить высокодетализированные автоматические прогнозы погоды по пунктам России, СНГ и мира в авиационном формате (включающие направление и скорость ветра, видимость, явления погоды, количество и форму облачности, нижнюю и верхнюю границу облачности).


Погода в Джизаке - сегодня

Время (UTC), дата Ветер
(°,м/с) 
Видим.   Явления Облачность Т
(°С)
Тd
(°С)
f(%) Тe
(°С)
Pmin
(гПа)
dP
(гПа)
Po
(мм)
O2
(г/м3)
Тmin Tmax R s Состояние
почвы
00 19.09.18 тихо ()   н/о    3/0 верхняя 
[Ci fib]
+22.6 +13.6 57 +30  1009.6  -0.1  728  268           
03 19.09.18 190 (Ю) 20000 м    8/6 600 м кучево-дожд., средняя 
[Cb cap|Ac As]
+24.9 +13.7 50 +32  1010.7  1.4  729  266           
06 19.09.18 270 (З) 20000 м    8/6 600 м кучево-дожд., верхняя 
[Cb cap|Ci fib]
+31 +15.9 40 +42  1010.3  0.4  729  261  +19         
09 19.09.18 310 (СЗ) 20000 м    3/0 средняя, верхняя 
[Ac trans|Ci fib]
+33.6 +16.6 36 +46  1008.6  -1.3  728  258           
12 19.09.18 310 (СЗ) 20000 м    4/0 средняя, верхняя 
[Ac lent|Ci fib]
+33 +17.7 40 +48  1007.9  -0.8  728  258           
15 19.09.18 тихо ()   н/о    3/0 средняя 
[Ac As]
+23.3 +14.3 57 +32  1010  0.8  728  267    +34.6       
18 19.09.18 тихо ()   н/о    3/0 средняя 
[Ac lent]
+18.8 +12.7 68 +24  1010  -0.5  728  272    +34.6       
21 19.09.18 220 (ЮЗ) н/о    3/3 600 м кучево-дожд. 
[Cb cap]
+21.8 +12.9 57 +28  1009.5  -0.1  728  269           
00 20.09.18 290 (З) н/о    ясно 
+19.8 +12.5 63 +26  1011.2  1.4  729  271           
03 20.09.18 350 (С) 20000 м    9/5 600 м кучево-дожд., средняя, верхняя 
[Cb cap|Ac lent|Ci fib]
+22 +13.1 57 +28  1013  730  270           
06 20.09.18 040 (СВ) 20000 м    9/8 600 м кучево-дожд., средняя 
[Cb cap|Ac As]
+23.1 +13.9 56 +31  1014.5  1.5  731  269  +18         
09 20.09.18 220 (ЮЗ) 20000 м  {ливн. осадки}  9/9 600 м кучево-дожд. 
[Cb cap]
+25.3 +15.2 54 +35  1012.8  -1.4  730  266           
12 20.09.18 270 (З) 10 км  {ливн. осадки}  9/9 600 м кучево-дожд. 
[Cb cap]
+25.6 +15.6 54 +36  1012.3  -0.3  730  266           
15 20.09.18 310 (СЗ) н/о    8/6 600 м кучево-дожд., средняя 
[Cb cap|Ac As]
+23.8 +15.3 59 +34  1013.8  1.2  731  268    +27.3       
18 20.09.18 тихо ()   н/о    8/6 600 м кучево-дожд., средняя 
[Cb cap|Ac As]
+20.8 +14.5 67 +29  1015.5  1.2  732  271    +27.3  0.0     
21 20.09.18 310 (СЗ) н/о    6/6 600 м кучево-дожд. 
[Cb cap]
+20.2 +13 63 +26  1015.9  0.3  732  272           
00 21.09.18 тихо ()   н/о    6/6 600 м кучево-дожд. 
[Cb cap]
+17.8 +11 64 +21  1017.4  733  275           
03 21.09.18 190 (Ю) 20000 м    3/0 средняя 
[Ac As]
+15.8 +10.3 70 +19  1019.3  1.6  734  278           
06 21.09.18 230 (ЮЗ) 20000 м    1/0 средняя 
[Ac lent]
+22.5 +13.3 56 +29  1018.3  734  271  +14.8         
09 21.09.18 030 (СВ) 20000 м    1/0 средняя 
[Ac lent]
+25.6 +15.4 53 +36  1016.3  -1.5  733  267           
12 21.09.18 280 (З) 20000 м    3/3 600 м 
[Cu med, cong]
+25.3 +15.2 54 +35  1016.1  -0.3  733  267           
15 21.09.18 тихо ()   н/о    ясно 
+19.2 +12 63 +24  1017.8  0.9  734  274    +26       
18 21.09.18 180 (Ю) н/о    ясно 
+15.1 +11 76 +19  1018.4  734  278    +26       
21 21.09.18 тихо ()   н/о    ясно 
+13.4 +10.3 81 +15  1018.2  -0.5  733  280           
00 22.09.18 тихо ()   н/о    ясно 
+12.2 +10.3 88 +14  1018  -0.3  733  281    +0.9       
Время (UTC), дата Ветер
(°,м/с) 
Видим.   Явления Облачность Т
(°С)
Тd
(°С)
f(%) Тe
(°С)
Pmin
(гПа)
dP
(гПа)
Po
(мм)
O2
(г/м3)
Тmin Tmax R s Состояние
почвы

Для получения пояснительной информации подведите курсор к названию столбца.

ПОГОДА в Джизаке - архив

Всё, что Вы хотите узнать о погоде в Джизаке - удобно и подробно!

Выберите нужную дату (начиная с 1 января 2015* года) и нажмите кнопку "Найти".
Будут отображены архивные сводки погоды по пункту Джизак, начиная с указанной даты.


Отображать данные в формате CSV (для использования в таблицах Excel)


Внимание! Наш архив погоды предназначен исключительно для личного некоммерческого использования в познавательных целях. Если Вам необходимы официальные справки о состоянии погоды (для производственных, юридических, коммерческих и т.п. целей), обращайтесь в органы Росгидромета.

*Примечание: данная дата относится к архиву по метеостанциям СССР (Россия, СНГ, Балтия).
Архив по метеостанциям Зарубежной Европы и Азии (кроме Китая) хранится 10 дней, по другим регионам земного шара (Китай, Африка, Америка, Австралия, Океания) - 1 день.

Джизак - район местоположения метеостанции


Название, широта, долгота, высота метеостанции:
Джизак 40.1°ш. 67.8°д. 345 м над ур. моря [Узбекистан]

Дополнительная информация

В oтличие oт бoльшинства пoгoдных сайтoв мы публикуем пoдрoбную метеoинфoрмацию в детальнoм прoфессиoнальнoм фoрмате.

Характеристики температуры и влажнoсти вoздуха измеряются на высoте 2 м в тени вдали oт зданий и деревьев.
Скoрoсть ветра измеряется на высoте 10 м (на урoвне рoста челoвека скoрoсть ветра ниже в 1.5-2 раза). Если метеoстанция нахoдится в гoрoде или в лесу, тo скoрoсть ветра занижена на 2-4 м/с пo сравнению с oткрытым местoм. Скoрoсть ветра над акватoриями крупных рек и oзёр, а также на вершинах хoлмoв на 2-5 м/с выше, чем в oбычных услoвиях.
Атмoсфернoе давление в разных тoчках местнoсти мoжет значительнo oтличаться oт давления на метеoстанции, в зависимoсти oт услoвий рельефа (при пoдъёме на 10 м давление пoнижается примернo на 1 мм рт.ст.).